#timestamp,LO_Frequency,Hit,StdDev 
1592132415.1,286047000.6,N
1592132416.0,286047000.6,N
1592132435.8,286046997.6,N
1592132455.7,286046991.2,N
1592132475.5,286046984.1,Y
1592132495.3,286046984.1,P
1592132515.2,286046982.6,P
1592132535.0,286046981.3,P
1592132535.9,286046981.3,Y
1592132555.8,286046993.0,P
1592132575.6,286046984.2,P
1592132595.4,286046985.9,P
1592132615.3,286046988.8,Y
1592132635.1,286047010.7,P
1592132655.8,286047013.0,N
1592132675.7,286047011.9,N
1592132695.5,286047018.7,N
1592132715.4,286047018.2,N
1592132735.2,286047017.5,N
1592132785.1,286047014.4,E
1592132795.9,286047007.1,N
1592132815.7,286046993.9,P
1592132835.6,286046996.4,N
1592132855.4,286046996.1,N
1592132875.2,286046995.5,N
1592132895.1,286046998.0,N
1592132896.0,286046998.0,N
1592132915.8,286046993.7,N
1592132935.6,286046991.7,N
1592132955.5,286046990.4,N
1592132975.3,286046993.2,N
1592132995.2,286046984.1,Y
1592133015.9,286046991.6,P
1592133035.7,286046989.3,P
1592133055.6,286046987.7,P
1592133075.4,286046987.0,Y
1592133095.2,286046996.9,P
1592133115.1,286047000.3,N
1592133116.0,286047000.3,N
1592133135.8,286047003.3,N
1592133155.7,286047006.9,N
1592133175.5,286047007.0,N
1592133195.3,286047006.9,N
1592133215.2,286047006.8,N
1592133235.0,286047007.0,N
1592133235.9,286047007.0,N
1592133255.8,286047006.2,N
1592133275.6,286047007.3,N
1592133295.4,286047003.2,N
1592133315.3,286047001.4,N
1592133335.1,286047001.2,N
1592133355.8,286047002.5,N
1592133375.7,286047007.0,N
1592133395.5,286047006.6,N
1592133415.4,286047007.1,N
1592133435.2,286047004.5,N
1592133455.0,286047003.4,N
1592133455.9,286047003.4,N
1592133475.8,286047003.1,N
1592133495.6,286047001.1,N
1592133515.4,286047000.9,N
1592133535.3,286047003.9,N
1592133555.1,286047001.5,N
1592133575.8,286046998.7,N
1592133595.7,286046999.3,N
1592133615.5,286046998.8,N
1592133635.4,286046999.8,N
1592133655.2,286047000.5,N
1592133675.0,286046996.5,N
1592133675.9,286046996.5,N
1592133725.8,286047008.8,E
1592133735.7,286047004.2,N
1592133755.6,286046998.1,P
1592133775.4,286046998.5,N
1592133795.2,286046996.6,N
1592133815.1,286046999.5,N
1592133816.0,286046999.5,N
1592133835.8,286046996.9,N
1592133855.7,286046996.7,N
1592133875.5,286046998.8,N
1592133895.3,286047003.8,N
1592133915.2,286047002.5,N
1592133935.0,286046999.6,N
1592133935.9,286046999.6,N
1592133955.8,286046993.8,N
1592133975.6,286047001.1,N
1592133995.4,286046996.9,N
1592134015.3,286047002.0,N
1592134035.1,286047002.3,N
1592134055.8,286047005.3,N
1592134075.7,286047006.4,N
1592134095.5,286047005.6,N
1592134115.3,286047004.3,N
1592134135.2,286047002.3,N
1592134155.0,286047000.0,N
1592134155.9,286047000.0,N
1592134175.8,286047001.0,N
1592134195.6,286047001.0,N
1592134215.4,286047002.1,N
1592134235.3,286047000.5,N
1592134255.1,286047002.6,N
1592134275.9,286047001.5,N
1592134295.7,286047002.0,N
1592134315.5,286047000.6,N
1592134335.4,286047000.9,N
1592134355.2,286047004.4,N
1592134375.0,286047004.3,N
1592134375.9,286047004.3,N
1592134395.8,286047004.2,N
1592134415.6,286047001.5,N
1592134435.5,286047001.5,N
1592134455.3,286047005.9,N
1592134475.1,286047003.5,N
1592134495.9,286046997.6,N
1592134515.7,286047000.8,N
1592134535.6,286046998.1,N
1592134555.4,286047000.5,N
1592134575.2,286046999.7,N
1592134595.1,286047004.4,N
1592134596.0,286047004.4,N
1592134615.8,286047002.4,N
1592134635.7,286047001.9,N
1592134655.5,286047005.5,N
1592134675.3,286047004.2,N
1592134695.2,286047007.2,Y
1592134715.9,286047001.9,P
1592134735.7,286047001.5,P
1592134755.6,286047001.9,P
1592134775.5,286047000.3,N
1592134795.3,286047001.8,N
1592134815.1,286047000.5,N
1592134835.9,286047004.0,Y
1592134855.7,286047002.7,P
1592134875.6,286047001.0,N
1592134895.4,286046996.9,P
1592134915.2,286046996.2,N
1592134935.1,286046993.3,N
1592134936.0,286046993.3,N
1592134955.8,286046997.5,N
1592134975.6,286046997.1,N
1592134995.5,286047001.7,N
1592135015.3,286047004.0,N
1592135035.2,286047003.0,N
1592135055.9,286047004.8,N
1592135075.7,286047005.3,N
1592135095.6,286047007.0,N
1592135115.4,286047006.8,N
1592135135.2,286047007.5,N
1592135155.1,286047006.8,N
1592135156.0,286047006.8,N
1592135175.8,286047006.1,N
1592135195.7,286047008.9,N
1592135215.5,286047008.4,N
1592135235.3,286047006.7,N
1592135255.2,286047008.9,N
1592135275.0,286047008.2,N
1592135275.9,286047008.2,N
1592135295.7,286047008.0,N
1592135315.6,286047008.5,N
1592135335.4,286047010.1,N
1592135355.3,286047006.1,N
1592135375.1,286047008.7,N
1592135395.8,286047006.8,N
1592135415.7,286047012.4,N
1592135435.5,286047012.2,N
1592135455.4,286047011.3,N
1592135475.2,286047011.2,N
1592135495.0,286047013.3,Y
1592135495.9,286047013.3,P
1592135515.8,286047008.4,N
1592135535.6,286047003.6,N
1592135555.5,286047005.3,N
1592135575.3,286047006.4,N
1592135595.1,286047007.3,N
1592135615.9,286047006.6,N
1592135635.7,286047007.5,N
1592135655.6,286047008.6,Y
1592135675.4,286047002.1,P
1592135695.2,286047001.4,N
1592135715.1,286047001.4,N
1592135716.0,286047001.4,N
1592135735.8,286047003.4,N
1592135755.8,286047005.3,N
1592135775.7,286047009.4,Y
1592135795.5,286047008.1,P
1592135815.3,286047009.6,P
1592135835.2,286047009.7,P
1592135855.0,286047011.8,Y
1592135855.9,286047011.8,P
1592135875.7,286047001.6,N
1592135895.6,286047002.6,N
1592135915.5,286047002.6,N
1592135935.3,286047003.8,N
1592135955.1,286047003.5,N
1592135975.9,286047005.4,N
1592135995.7,286047005.4,N
